Flag for Germany Weather past 2 weeks in Mosbach, Baden-Württemberg, Germany

Now
56 °F

Overcast.


Feels Like: 54 °F
Forecast: 42 / 73 °F
Wind: 7 mph from Southwest

Location: Oehringen

Current Time: May 30, 2015 at 3:13:35 PM

Latest Report: May 30, 2015 at 2:00 PM


Visibility: 31 mi

Pressure: 30.01 "Hg

Humidity: 70%

Dew point: 46 °F

Location of MosbachLocation

Historic Weather in Mosbach — Graph

°F

Mosbach temperature yesterday

Maximum temperature yesterday: 66 °F (at 4:00 PM)
Minimum temperature yesterday: 54 °F (at 6:00 AM)
Average temperature yesterday: 59 °F

Past Weeks' High & Low Weather Summary

 TemperatureHumidityPressure
High73 °F (May 18, 5:00 PM)99% (May 26, 2:00 AM)30.37 "Hg (May 26, 2:00 AM)
Low38 °F (May 22, 6:00 AM)28% (May 15, 7:00 PM)29.71 "Hg (May 18, 9:00 PM)
Average56 °F67%30.06 "Hg
* Reported May 15 2:00 PM — May 30 2:00 PM, Mosbach, Weather by CustomWeather, © 2015

Note: Actual official high and low records may vary slightly from our data, if they occured in-between our weather recording intervals... More about our weather records

Advertising

Mosbach weather history for previous 24 hours

 ConditionsComfort  
Time TempWeatherWind HumidityBarometerVisibility
2:00 PM
Sat, May 30
56 °FOvercast.7 mph70%30.01 "Hg31 mi
1:00 PM56 °FOvercast.6 mph73%30.01 "Hg31 mi
12:00 PM53 °FOvercast.6 mph82%30.01 "Hg25 mi
11:00 AM53 °FDrizzle. Low clouds.3 mph94%29.99 "Hg11 mi
10:00 AM51 °FLight freezing rain. Overcast.5 mph93%29.99 "Hg9 mi
9:00 AM51 °FLight freezing rain. Overcast.3 mph95%29.97 "Hg3 mi
8:00 AM50 °FLight rain. Overcast.5 mph94%29.96 "Hg4 mi
7:00 AM53 °FDrizzle. Overcast.5 mph92%29.92 "Hg8 mi
6:00 AM53 °FLight rain. Overcast.3 mph91%29.91 "Hg4 mi
5:00 AM54 °FDrizzle. Overcast.3 mph85%29.90 "Hg11 mi
4:00 AM55 °FOvercast.2 mph82%29.89 "Hg16 mi
3:00 AM56 °FOvercast.2 mph77%29.89 "Hg19 mi
2:00 AM55 °FOvercast.3 mph82%29.89 "Hg17 mi
1:00 AM56 °FOvercast.3 mph86%29.89 "Hg12 mi
12:00 AM55 °FOvercast.3 mph91%29.88 "Hg7 mi
11:00 PM
Fri, May 29
56 °FFog.3 mph96%29.88 "Hg4 mi
10:00 PM57 °FOvercast.3 mph94%29.88 "Hg4 mi
9:00 PM58 °FOvercast.2 mph92%29.85 "Hg7 mi
8:00 PM58 °FOvercast.2 mph91%29.85 "Hg6 mi
7:00 PM62 °FOvercast.2 mph71%29.83 "Hg19 mi
6:00 PM61 °FOvercast.2 mph74%29.83 "Hg17 mi
5:00 PM64 °FOvercast.3 mph63%29.82 "Hg19 mi
4:00 PM66 °FOvercast.2 mph60%29.83 "Hg18 mi
3:00 PM63 °FOvercast.2 mph68%29.86 "Hg19 mi
Weather by CustomWeather, © 2015

See weather overviewHow to use our weather pages